Flag for United Kingdom Weather past 2 weeks in Whitstable, England, United Kingdom

Now
51 °F

Smoke.


Feels Like: 47 °F
Forecast: 54 / 62 °F
Wind: 9 mph from Southwest

Location: Manston

Current Time: Sep 23, 2014 at 1:54:54 AM

Latest Report: Sep 23, 2014 at 12:00 AM


Visibility: 3 mi

Pressure: 30.25 "Hg

Humidity: 85%

Dew point: 46 °F

Location of WhitstableLocation

Historic Weather in Whitstable — Graph

°F

Whitstable temperature yesterday

Maximum temperature yesterday: 61 °F (at 3:00 PM)
Minimum temperature yesterday: 51 °F (at 11:00 PM)
Average temperature yesterday: 57 °F

Past Weeks' High & Low Weather Summary

 TemperatureHumidityPressure
High72 °F (Sep 18, 3:00 PM)100% (Sep 20, 3:00 AM)30.32 "Hg (Sep 20, 3:00 AM)
Low51 °F (Sep 23, 12:00 AM)52% (Sep 8, 12:00 PM)29.79 "Hg (Sep 18, 5:00 AM)
Average61 °F82%30.09 "Hg
* Reported Midnight between Sep 7 and Sep 8 — Midnight between Sep 22 and Sep 23, Whitstable, Weather by CustomWeather, © 2014

Note: Actual official high and low records may vary slightly from our data, if they occured in-between our weather recording intervals... More about our weather records

Advertising

Whitstable weather history for previous 24 hours

 ConditionsComfort  
Time TempWeatherWind HumidityBarometerVisibility
12:00 AM
Sep 23
51 °FSmoke.9 mph85%30.25 "Hg3 mi
11:00 PM
Sep 22
51 °FSmoke.9 mph82%30.26 "Hg4 mi
10:00 PM53 °FSmoke.9 mph80%30.25 "Hg4 mi
9:00 PM54 °FSmoke.9 mph78%30.25 "Hg4 mi
8:00 PM55 °FCool.7 mph74%30.25 "Hg6 mi
7:00 PM56 °FCool.6 mph70%30.24 "Hg6 mi
6:00 PM60 °FCool.6 mph62%30.24 "Hg7 mi
5:00 PM61 °FSmoke.6 mph59%30.25 "Hg6 mi
4:00 PM61 °FSmoke.10 mph59%30.26 "Hg5 mi
3:00 PM61 °FSmoke.10 mph60%30.27 "Hg5 mi
2:00 PM60 °FSmoke.12 mph60%30.27 "Hg5 mi
1:00 PM60 °FSmoke.12 mph62%30.29 "Hg4 mi
12:00 PM60 °FSmoke.12 mph65%30.29 "Hg4 mi
11:00 AM58 °FSmoke.13 mph68%30.29 "Hg4 mi
10:00 AM57 °FSmoke.15 mph66%30.29 "Hg4 mi
9:00 AM56 °FSmoke.15 mph67%30.28 "Hg4 mi
8:00 AM55 °FSmoke.14 mph72%30.28 "Hg4 mi
7:00 AM54 °FSmoke.14 mph70%30.28 "Hg4 mi
6:00 AM54 °FSmoke.14 mph66%30.27 "Hg4 mi
5:00 AM54 °FSmoke.12 mph77%30.27 "Hg4 mi
4:00 AM54 °FSmoke.13 mph76%30.28 "Hg4 mi
3:00 AM55 °FCool.13 mph73%30.28 "Hg6 mi
2:00 AM55 °FCool.13 mph76%30.29 "Hg8 mi
1:00 AM56 °FCool.13 mph71%30.29 "Hg12 mi
Weather by CustomWeather, © 2014

See weather overviewHow to use our weather pages